sat.trackr.live / text

‹ back to catalog

ZORKIY-2M 1

NORAD 57177 · 2023-091M

PAYLOAD ACTIVE UNKNOWN

§ Identity

Operator
Country
CIS
Launch date
2023-06-27
Launch site
VOSTO
Launch vehicle
Mass (kg)
RCS (m²)

External: N2YO · Heavens-Above · Gunter

§ Orbital elements

Epoch: 2026-09-21T21:24:06.222816Z

Period
94.62 min
Inclination
97.4993°
Eccentricity
0.0014109
Mean motion
15.21944808 rev/d
Perigee alt
490.3 km
Apogee alt
509.7 km
Semi-major
6,878.1 km
B*
1.8826e-4
RAAN
323.5683°
Arg perigee
134.4395°
Mean anomaly
225.7998°
Rev number
17,870

§ Raw data

ZORKIY-2M 11 57177U 23091M   26264.89173869  .00004231  00000+0  18826-3 0  99902 57177  97.4993 323.5683 0014109 134.4395 225.7998 15.21944808178701

JSON: /api/v1/satellites/57177 · /tle

For live sub-satellite position, see the globe view (requires WebGL).

§ Visibility from observer

Set your observer location to see the next 7 days of passes ≥ 10°. The values pass through the URL so the page stays shareable.

No JS? Fill the form by hand. The geolocation button needs JavaScript.

§ Radio — SatNOGS DB

ModeDescriptionDownlinkUplink
GMSK USP Mode U - FSK USP 2k4 TLM AX.25 401.950 MHz
GMSK USP Mode U - FSK USP 2k4 TLM AX.25 401.480 MHz

2 transmitters · refreshed weekly from db.satnogs.org